| time (UTC) | temp F | wind direction | speed knots | gust knots | rain 1hr in | rain 24hr in | rain mn in | humidity % | barometer mb |
| 20260506214502 | 55 | 213 | 0.0 | 2.6 | 0.00 | 0.27 | 0.27 | 93 | 1014.6 |
| 20260506213602 | 55 | 127 | 0.9 | 2.6 | 0.00 | 0.27 | 0.27 | 92 | 1014.5 |
| 20260506212702 | 55 | 122 | 1.7 | 2.6 | 0.00 | 0.27 | 0.27 | 92 | 1014.4 |
| 20260506211802 | 55 | 134 | 1.7 | 3.5 | 0.00 | 0.27 | 0.27 | 91 | 1014.4 |
| 20260506210902 | 55 | 125 | 1.7 | 2.6 | 0.00 | 0.27 | 0.27 | 91 | 1014.4 |
| 20260506210002 | 55 | 191 | 0.9 | 3.5 | 0.00 | 0.27 | 0.27 | 91 | 1014.4 |
| 20260506205402 | 55 | 295 | 0.9 | 4.3 | 0.00 | 0.27 | 0.27 | 90 | 1014.4 |
| 20260506204523 | 56 | 347 | 1.7 | 4.3 | 0.00 | 0.27 | 0.27 | 90 | 1014.3 |
| 20260506203602 | 56 | 353 | 1.7 | 6.1 | 0.00 | 0.27 | 0.27 | 90 | 1014.2 |
| 20260506202702 | 56 | 345 | 3.5 | 7.8 | 0.00 | 0.27 | 0.27 | 89 | 1014.3 |
| 20260506201802 | 56 | 343 | 4.3 | 10.4 | 0.00 | 0.27 | 0.27 | 90 | 1014.1 |
| 20260506200902 | 57 | 346 | 2.6 | 7.8 | 0.00 | 0.27 | 0.27 | 91 | 1014.0 |
| 20260506200002 | 57 | 1 | 3.5 | 7.8 | 0.00 | 0.27 | 0.27 | 91 | 1014.2 |
| 20260506195402 | 57 | 11 | 2.6 | 6.1 | 0.00 | 0.27 | 0.27 | 91 | 1013.8 |
| 20260506194502 | 57 | 15 | 2.6 | 5.2 | 0.00 | 0.27 | 0.27 | 91 | 1013.7 |
| 20260506193602 | 57 | 9 | 2.6 | 5.2 | 0.01 | 0.27 | 0.27 | 91 | 1013.7 |
| 20260506192702 | 57 | 355 | 1.7 | 5.2 | 0.01 | 0.27 | 0.27 | 92 | 1013.4 |
| 20260506191802 | 57 | 7 | 1.7 | 7.8 | 0.01 | 0.27 | 0.27 | 92 | 1013.3 |
| 20260506190923 | 57 | 343 | 1.7 | 7.8 | 0.01 | 0.27 | 0.27 | 92 | 1013.0 |
| 20260506190023 | 57 | 334 | 0.0 | 1.7 | 0.01 | 0.27 | 0.27 | 92 | 1012.8 |
| 20260506185423 | 57 | 10 | 0.0 | 2.6 | 0.01 | 0.27 | 0.27 | 91 | 1012.9 |
| 20260506184502 | 57 | 142 | 0.9 | 2.6 | 0.01 | 0.27 | 0.27 | 91 | 1012.5 |
| 20260506183602 | 57 | 144 | 0.0 | 2.6 | 0.08 | 0.26 | 0.26 | 91 | 1012.2 |
| 20260506182702 | 57 | 79 | 0.9 | 3.5 | 0.08 | 0.26 | 0.26 | 91 | 1012.3 |
| 20260506181802 | 57 | 122 | 0.9 | 3.5 | 0.08 | 0.26 | 0.26 | 90 | 1012.5 |
| 20260506180902 | 57 | 95 | 0.9 | 3.5 | 0.08 | 0.26 | 0.26 | 90 | 1012.1 |
| 20260506180023 | 57 | 85 | 1.7 | 5.2 | 0.08 | 0.26 | 0.26 | 91 | 1011.9 |
| 20260506175402 | 57 | 95 | 2.6 | 6.1 | 0.08 | 0.26 | 0.26 | 90 | 1011.9 |
| 20260506174502 | 57 | 78 | 2.6 | 6.1 | 0.07 | 0.26 | 0.26 | 90 | 1012.1 |
| 20260506173602 | 57 | 52 | 1.7 | 5.2 | 0.00 | 0.19 | 0.19 | 89 | 1012.0 |
| 20260506172702 | 57 | 90 | 2.6 | 8.7 | 0.07 | 0.19 | 0.19 | 89 | 1012.0 |
| 20260506171802 | 57 | 63 | 3.5 | 8.7 | 0.13 | 0.19 | 0.19 | 89 | 1012.1 |
| 20260506170902 | 57 | 74 | 4.3 | 7.0 | 0.18 | 0.19 | 0.19 | 90 | 1012.0 |
| 20260506170023 | 57 | 54 | 4.3 | 7.8 | 0.19 | 0.19 | 0.19 | 89 | 1011.9 |
| 20260506165423 | 58 | 80 | 4.3 | 9.6 | 0.19 | 0.19 | 0.19 | 89 | 1012.0 |
| 20260506164502 | 58 | 71 | 4.3 | 10.4 | 0.19 | 0.19 | 0.19 | 88 | 1012.0 |
| 20260506163623 | 58 | 60 | 3.5 | 7.8 | 0.18 | 0.18 | 0.18 | 87 | 1012.2 |
| 20260506162702 | 59 | 127 | 2.6 | 6.1 | 0.12 | 0.12 | 0.12 | 83 | 1011.8 |
| 20260506161802 | 61 | 299 | 0.9 | 6.1 | 0.06 | 0.06 | 0.06 | 78 | 1011.7 |
| 20260506160902 | 62 | 208 | 2.6 | 8.7 | 0.01 | 0.01 | 0.01 | 71 | 1011.7 |
| 20260506160002 | 62 | 139 | 5.2 | 15.6 | 0.00 | 0.00 | 0.00 | 70 | 1011.4 |
| 20260506155402 | 62 | 124 | 8.7 | 16.5 | 0.00 | 0.00 | 0.00 | 70 | 1011.0 |
| 20260506154503 | 63 | 115 | 7.8 | 16.5 | 0.00 | 0.00 | 0.00 | 67 | 1010.8 |
| 20260506153623 | 64 | 122 | 7.0 | 14.8 | 0.00 | 0.00 | 0.00 | 65 | 1010.8 |
| 20260506152702 | 63 | 124 | 6.1 | 16.5 | 0.00 | 0.00 | 0.00 | 66 | 1010.6 |
| 20260506151803 | 63 | 119 | 7.0 | 16.5 | 0.00 | 0.00 | 0.00 | 66 | 1010.9 |
| 20260506150903 | 62 | 131 | 6.1 | 14.8 | 0.00 | 0.00 | 0.00 | 67 | 1011.1 |
| 20260506150003 | 62 | 113 | 7.8 | 15.6 | 0.00 | 0.00 | 0.00 | 67 | 1011.1 |
| 20260506145424 | 62 | 111 | 7.0 | 15.6 | 0.00 | 0.00 | 0.00 | 67 | 1011.1 |
| 20260506144502 | 63 | 113 | 7.8 | 14.8 | 0.00 | 0.00 | 0.00 | 66 | 1010.9 |
| 20260506143603 | 62 | 113 | 6.1 | 14.8 | 0.00 | 0.00 | 0.00 | 66 | 1011.1 |
| 20260506142703 | 64 | 119 | 7.0 | 14.8 | 0.00 | 0.00 | 0.00 | 63 | 1011.1 |
| 20260506141824 | 64 | 102 | 7.0 | 15.6 | 0.00 | 0.00 | 0.00 | 62 | 1011.2 |
| 20260506140903 | 65 | 117 | 6.1 | 14.8 | 0.00 | 0.00 | 0.00 | 61 | 1011.1 |
| 20260506140003 | 64 | 117 | 9.6 | 17.4 | 0.00 | 0.00 | 0.00 | 61 | 1011.2 |
| 20260506135403 | 64 | 123 | 9.6 | 17.4 | 0.00 | 0.00 | 0.00 | 62 | 1011.2 |
| 20260506134524 | 64 | 105 | 7.0 | 17.4 | 0.00 | 0.00 | 0.00 | 62 | 1011.4 |
| 20260506133603 | 64 | 97 | 7.0 | 17.4 | 0.00 | 0.00 | 0.00 | 61 | 1011.5 |
| 20260506132703 | 63 | 119 | 7.0 | 13.9 | 0.00 | 0.00 | 0.00 | 62 | 1011.4 |
| 20260506131824 | 63 | 112 | 7.0 | 12.2 | 0.00 | 0.00 | 0.00 | 61 | 1011.6 |
| 20260506130903 | 62 | 111 | 6.1 | 11.3 | 0.00 | 0.00 | 0.00 | 63 | 1011.7 |
| 20260506130003 | 61 | 128 | 6.1 | 13.0 | 0.00 | 0.00 | 0.00 | 65 | 1012.0 |
| 20260506125424 | 61 | 116 | 6.1 | 12.2 | 0.00 | 0.00 | 0.00 | 67 | 1011.9 |
| 20260506124503 | 61 | 120 | 5.2 | 12.2 | 0.00 | 0.00 | 0.00 | 66 | 1011.7 |
| 20260506123603 | 61 | 86 | 3.5 | 7.0 | 0.00 | 0.00 | 0.00 | 67 | 1011.8 |
| 20260506122703 | 61 | 59 | 3.5 | 7.8 | 0.00 | 0.00 | 0.00 | 68 | 1012.1 |
| 20260506121803 | 61 | 71 | 4.3 | 12.2 | 0.00 | 0.00 | 0.00 | 69 | 1012.1 |
| 20260506120903 | 62 | 91 | 4.3 | 12.2 | 0.00 | 0.00 | 0.00 | 64 | 1012.2 |
| 20260506120024 | 61 | 85 | 5.2 | 13.9 | 0.00 | 0.00 | 0.00 | 65 | 1011.9 |
| 20260506115403 | 61 | 77 | 4.3 | 11.3 | 0.00 | 0.00 | 0.00 | 64 | 1011.7 |
| 20260506114503 | 60 | 101 | 5.2 | 12.2 | 0.00 | 0.00 | 0.00 | 67 | 1011.9 |
| 20260506113603 | 62 | 118 | 6.1 | 12.2 | 0.00 | 0.00 | 0.00 | 62 | 1011.7 |
| 20260506112724 | 62 | 113 | 4.3 | 10.4 | 0.00 | 0.00 | 0.00 | 62 | 1011.8 |
| 20260506111803 | 61 | 113 | 6.1 | 11.3 | 0.00 | 0.00 | 0.00 | 62 | 1011.8 |
| 20260506110924 | 62 | 88 | 4.3 | 10.4 | 0.00 | 0.00 | 0.00 | 63 | 1011.9 |
| 20260506110003 | 61 | 84 | 4.3 | 9.6 | 0.00 | 0.00 | 0.00 | 67 | 1012.2 |
| 20260506105403 | 60 | 79 | 4.3 | 9.6 | 0.00 | 0.00 | 0.00 | 66 | 1012.2 |
| 20260506104503 | 61 | 86 | 3.5 | 9.6 | 0.00 | 0.00 | 0.00 | 66 | 1012.4 |
| 20260506103624 | 62 | 96 | 4.3 | 10.4 | 0.00 | 0.00 | 0.00 | 66 | 1012.3 |
| 20260506102703 | 62 | 90 | 6.1 | 13.9 | 0.00 | 0.00 | 0.00 | 64 | 1012.6 |
| 20260506101803 | 61 | 81 | 5.2 | 13.9 | 0.00 | 0.00 | 0.00 | 64 | 1012.6 |
| 20260506100924 | 62 | 76 | 5.2 | 12.2 | 0.00 | 0.00 | 0.00 | 63 | 1012.5 |
| 20260506100003 | 61 | 72 | 6.1 | 14.8 | 0.00 | 0.00 | 0.00 | 64 | 1012.6 |
| 20260506095403 | 61 | 64 | 6.1 | 14.8 | 0.00 | 0.00 | 0.00 | 64 | 1012.7 |
| 20260506094503 | 61 | 28 | 4.3 | 9.6 | 0.00 | 0.00 | 0.00 | 66 | 1012.8 |
| 20260506093603 | 61 | 33 | 2.6 | 7.8 | 0.00 | 0.00 | 0.00 | 68 | 1012.7 |
| 20260506092703 | 60 | 64 | 4.3 | 9.6 | 0.00 | 0.00 | 0.00 | 68 | 1012.6 |
| 20260506091824 | 61 | 63 | 5.2 | 9.6 | 0.00 | 0.00 | 0.00 | 68 | 1012.5 |
| 20260506090903 | 61 | 74 | 5.2 | 9.6 | 0.00 | 0.00 | 0.00 | 67 | 1012.4 |
| 20260506090003 | 62 | 65 | 4.3 | 9.6 | 0.00 | 0.00 | 0.00 | 65 | 1012.4 |
| 20260506085403 | 61 | 58 | 4.3 | 8.7 | 0.00 | 0.00 | 0.00 | 64 | 1012.4 |
| 20260506084503 | 61 | 39 | 2.6 | 7.0 | 0.00 | 0.00 | 0.00 | 62 | 1012.3 |
| 20260506083603 | 62 | 282 | 1.7 | 5.2 | 0.00 | 0.00 | 0.00 | 61 | 1012.0 |
| 20260506082701 | 61 | 293 | 1.7 | 5.2 | 0.00 | 0.00 | 0.00 | 63 | 1012.1 |
| 20260506081822 | 62 | 218 | 1.7 | 7.8 | 0.00 | 0.00 | 0.00 | 62 | 1012.2 |
| 20260506080901 | 63 | 262 | 1.7 | 3.5 | 0.00 | 0.00 | 0.00 | 64 | 1012.0 |
| 20260506072701 | 58 | 145 | 1.7 | 3.5 | 0.00 | 0.00 | 0.00 | 73 | 1012.0 |
| 20260506071801 | 57 | 349 | 0.9 | 2.6 | 0.00 | 0.00 | 0.00 | 74 | 1011.9 |
| 20260506070922 | 56 | 157 | 0.9 | 3.5 | 0.00 | 0.00 | 0.00 | 77 | 1011.8 |
| 20260506061801 | 53 | 42 | 1.7 | 4.3 | 0.00 | 0.00 | 0.00 | 86 | 1011.9 |
| 20260506060901 | 53 | 22 | 1.7 | 5.2 | 0.00 | 0.00 | 0.00 | 86 | 1011.8 |
| 20260506050922 | 51 | 157 | 1.7 | 4.3 | 0.00 | 0.00 | 0.00 | 90 | 1011.3 |
| 20260506044501 | 50 | 135 | 1.7 | 5.2 | 0.00 | 0.00 | 0.00 | 89 | 1011.0 |
| 20260506043601 | 50 | 120 | 1.7 | 4.3 | 0.00 | 0.00 | 0.00 | 89 | 1011.0 |
| 20260506042701 | 50 | 158 | 2.6 | 5.2 | 0.00 | 0.00 | 0.00 | 89 | 1010.7 |
| 20260506041801 | 50 | 145 | 2.6 | 5.2 | 0.00 | 0.00 | 0.00 | 89 | 1010.8 |
| 20260506040901 | 50 | 147 | 1.7 | 5.2 | 0.00 | 0.00 | 0.00 | 89 | 1010.9 |
| 20260506040001 | 50 | 149 | 2.6 | 6.1 | 0.00 | 0.00 | 0.00 | 88 | 1010.8 |
| 20260506035401 | 50 | 76 | 2.6 | 6.1 | 0.00 | 0.00 | 0.00 | 88 | 1010.8 |
| 20260506034522 | 50 | 92 | 1.7 | 5.2 | 0.00 | 0.00 | 0.00 | 88 | 1010.8 |
| 20260506033622 | 51 | 158 | 1.7 | 4.3 | 0.00 | 0.00 | 0.00 | 88 | 1010.7 |
| 20260506032722 | 51 | 167 | 1.7 | 6.1 | 0.00 | 0.00 | 0.00 | 88 | 1010.8 |
| 20260506031801 | 51 | 223 | 1.7 | 5.2 | 0.00 | 0.00 | 0.00 | 88 | 1010.6 |
| 20260506030901 | 51 | 166 | 1.7 | 5.2 | 0.00 | 0.00 | 0.00 | 87 | 1010.8 |
| 20260506030002 | 51 | 153 | 3.5 | 7.0 | 0.00 | 0.00 | 0.00 | 87 | 1010.8 |
| 20260506025402 | 51 | 147 | 2.6 | 5.2 | 0.00 | 0.00 | 0.00 | 86 | 1010.8 |
| 20260506024502 | 51 | 144 | 2.6 | 6.1 | 0.00 | 0.00 | 0.00 | 85 | 1010.7 |
| 20260506023602 | 51 | 65 | 2.6 | 5.2 | 0.00 | 0.00 | 0.00 | 85 | 1010.9 |
| 20260506022701 | 51 | 134 | 1.7 | 4.3 | 0.00 | 0.00 | 0.00 | 85 | 1010.5 |
| 20260506021802 | 51 | 130 | 1.7 | 4.3 | 0.00 | 0.00 | 0.00 | 84 | 1010.6 |
| 20260506020902 | 51 | 153 | 1.7 | 4.3 | 0.00 | 0.00 | 0.00 | 84 | 1010.4 |
| 20260506020002 | 51 | 149 | 1.7 | 3.5 | 0.00 | 0.00 | 0.00 | 83 | 1010.4 |
| 20260506015402 | 51 | 141 | 2.6 | 4.3 | 0.00 | 0.00 | 0.00 | 83 | 1010.6 |
| 20260506014502 | 52 | 123 | 1.7 | 4.3 | 0.00 | 0.00 | 0.00 | 81 | 1010.5 |
| 20260506013602 | 52 | 152 | 0.9 | 4.3 | 0.00 | 0.00 | 0.00 | 79 | 1010.5 |
| 20260506012702 | 53 | 119 | 0.9 | 2.6 | 0.00 | 0.00 | 0.00 | 78 | 1010.4 |
| 20260506011802 | 53 | 107 | 0.0 | 1.7 | 0.00 | 0.00 | 0.00 | 78 | 1010.6 |
| 20260506010902 | 53 | 99 | 0.9 | 2.6 | 0.00 | 0.00 | 0.00 | 77 | 1010.4 |
| 20260506010002 | 53 | 142 | 0.9 | 2.6 | 0.00 | 0.00 | 0.00 | 77 | 1010.6 |
| 20260506005423 | 53 | 141 | 0.0 | 2.6 | 0.00 | 0.00 | 0.00 | 77 | 1010.9 |
| 20260506004502 | 53 | 148 | 0.9 | 3.5 | 0.00 | 0.00 | 0.00 | 77 | 1010.8 |
| 20260506003602 | 53 | 135 | 0.9 | 2.6 | 0.00 | 0.00 | 0.00 | 78 | 1010.8 |
| 20260506002702 | 53 | 115 | 0.9 | 2.6 | 0.00 | 0.00 | 0.00 | 78 | 1010.7 |
| 20260506001802 | 53 | 75 | 0.9 | 2.6 | 0.00 | 0.00 | 0.00 | 78 | 1010.4 |
| 20260506000902 | 53 | 82 | 0.9 | 2.6 | 0.00 | 0.00 | 0.00 | 77 | 1010.8 |
| 20260506000002 | 54 | 134 | 0.9 | 1.7 | 0.00 | 0.00 | 0.00 | 78 | 1010.7 |
| 20260505235423 | 53 | 152 | 0.9 | 2.6 | 0.00 | 0.00 | 0.00 | 78 | 1011.0 |
| 20260505234502 | 53 | 139 | 1.7 | 4.3 | 0.00 | 0.00 | 0.00 | 79 | 1011.3 |
| 20260505233602 | 53 | 120 | 1.7 | 3.5 | 0.00 | 0.00 | 0.00 | 80 | 1011.4 |
| 20260505232702 | 53 | 132 | 1.7 | 3.5 | 0.00 | 0.00 | 0.00 | 81 | 1011.4 |
| 20260505231802 | 53 | 151 | 0.9 | 2.6 | 0.00 | 0.00 | 0.00 | 80 | 1011.6 |
| 20260505230902 | 53 | 121 | 0.9 | 2.6 | 0.00 | 0.00 | 0.00 | 80 | 1011.4 |
| 20260505230002 | 53 | 120 | 0.9 | 3.5 | 0.00 | 0.00 | 0.00 | 81 | 1011.5 |
| 20260505225423 | 53 | 134 | 1.7 | 3.5 | 0.00 | 0.00 | 0.00 | 81 | 1011.4 |
| 20260505224502 | 53 | 107 | 1.7 | 2.6 | 0.00 | 0.00 | 0.00 | 81 | 1011.4 |
| 20260505223623 | 54 | 90 | 0.9 | 1.7 | 0.00 | 0.00 | 0.00 | 80 | 1011.6 |
| 20260505222702 | 54 | 207 | 0.0 | 1.7 | 0.00 | 0.00 | 0.00 | 80 | 1011.4 |
| 20260505221802 | 54 | 215 | 0.9 | 3.5 | 0.00 | 0.00 | 0.00 | 79 | 1011.6 |
| 20260505220902 | 55 | 170 | 0.9 | 3.5 | 0.00 | 0.00 | 0.00 | 78 | 1011.7 |
| 20260505220003 | 56 | 2 | 0.9 | 3.5 | 0.00 | 0.00 | 0.00 | 76 | 1011.8 |
| 20260505215402 | 56 | 2 | 0.9 | 3.5 | 0.00 | 0.00 | 0.00 | 76 | 1011.5 |